GFSNE_prec_precacc12_327.txt.gz
Total_Precipitation_Accumulation
0.14 0.10 0.07 0.05 0.01 0.00 0.01 0.01 0.00 0.00 0.00 0.00 0.00 0.00 0.00 0.00 0.00 0.00 0.00 0.13 0.23 0.42 0.31 0.16 0.26 0.17 0.11 0.04 0.00 0.00 0.00 0.00 0.01 0.00 0.01 0.01 0.03 0.03
0.09 0.12 0.10 0.05 0.03 0.01 0.01 0.01 0.00 0.00 0.00 0.00 0.00 0.00 0.00 0.00 0.00 0.00 0.00 0.14 0.30 0.46 0.32 0.15 0.21 0.17 0.08 0.01 0.00 0.00 0.00 0.00 0.00 0.00 0.00 0.01 0.01 0.02
0.09 0.10 0.09 0.05 0.04 0.01 0.01 0.01 0.00 0.00 0.00 0.00 0.00 0.00 0.00 0.00 0.00 0.00 0.02 0.16 0.31 0.42 0.34 0.16 0.16 0.15 0.04 0.00 0.00 0.00 0.00 0.00 0.00 0.00 0.01 0.01 0.01 0.02
0.10 0.14 0.08 0.07 0.04 0.02 0.01 0.00 0.00 0.00 0.00 0.00 0.00 0.00 0.00 0.01 0.01 0.03 0.08 0.18 0.35 0.45 0.35 0.14 0.14 0.13 0.02 0.00 0.00 0.00 0.00 0.00 0.00 0.00 0.00 0.00 0.01 0.01
0.16 0.18 0.09 0.06 0.04 0.02 0.01 0.00 0.00 0.00 0.00 0.00 0.01 0.01 0.00 0.02 0.06 0.18 0.22 0.24 0.48 0.60 0.40 0.20 0.18 0.13 0.01 0.00 0.00 0.00 0.00 0.00 0.00 0.00 0.00 0.01 0.01 0.00
0.19 0.15 0.06 0.03 0.01 0.01 0.01 0.01 0.01 0.00 0.00 0.00 0.00 0.02 0.04 0.13 0.23 0.24 0.39 0.43 0.61 0.89 0.53 0.34 0.29 0.14 0.01 0.00 0.01 0.00 0.00 0.00 0.01 0.01 0.01 0.01 0.01 0.01
0.19 0.10 0.05 0.04 0.04 0.02 0.01 0.01 0.00 0.00 0.01 0.02 0.10 0.15 0.19 0.38 0.28 0.15 0.37 0.59 0.98 1.30 0.59 0.62 0.39 0.18 0.07 0.03 0.01 0.00 0.01 0.01 0.01 0.01 0.01 0.01 0.01 0.01
0.24 0.17 0.13 0.16 0.13 0.09 0.04 0.03 0.03 0.08 0.15 0.31 0.32 0.17 0.34 0.31 0.13 0.20 0.42 0.85 1.79 1.70 0.75 1.00 0.40 0.31 0.28 0.04 0.02 0.01 0.01 0.01 0.01 0.02 0.01 0.01 0.01 0.01
0.47 0.36 0.24 0.18 0.19 0.31 0.23 0.10 0.19 0.34 0.38 0.33 0.20 0.34 0.32 0.16 0.08 0.28 0.54 0.86 1.29 1.64 0.29 0.53 0.24 0.23 0.33 0.16 0.08 0.02 0.01 0.01 0.02 0.02 0.02 0.02 0.02 0.02
0.58 0.52 0.44 0.40 0.48 0.36 0.18 0.34 0.39 0.32 0.29 0.14 0.29 0.30 0.17 0.05 0.10 0.43 0.67 0.66 0.85 0.74 0.09 0.26 0.19 0.38 0.35 0.15 0.20 0.07 0.03 0.03 0.02 0.02 0.02 0.02 0.02 0.02
0.46 0.51 0.47 0.47 0.55 0.45 0.31 0.34 0.41 0.56 0.41 0.31 0.37 0.35 0.26 0.20 0.22 0.37 0.35 0.41 0.79 0.65 0.15 0.07 0.38 0.29 0.13 0.04 0.18 0.29 0.13 0.08 0.05 0.03 0.02 0.02 0.02 0.02
0.35 0.47 0.60 0.54 0.54 0.41 0.33 0.27 0.29 0.73 0.54 0.37 0.41 0.37 0.17 0.16 0.26 0.12 0.15 0.17 0.35 0.29 0.09 0.07 0.28 0.07 0.10 0.14 0.06 0.12 0.11 0.16 0.11 0.09 0.08 0.07 0.05 0.01
0.36 0.54 0.69 0.49 0.39 0.32 0.28 0.18 0.40 0.41 0.29 0.33 0.42 0.35 0.12 0.23 0.27 0.15 0.10 0.08 0.05 0.04 0.03 0.08 0.06 0.00 0.02 0.14 0.12 0.07 0.03 0.06 0.04 0.06 0.07 0.08 0.06 0.04
0.35 0.47 0.50 0.38 0.34 0.34 0.28 0.32 0.33 0.19 0.16 0.20 0.23 0.19 0.16 0.20 0.24 0.20 0.27 0.14 0.02 0.00 0.01 0.02 0.00 0.00 0.01 0.05 0.13 0.15 0.04 0.04 0.03 0.02 0.02 0.05 0.06 0.06
0.35 0.44 0.36 0.31 0.27 0.29 0.32 0.25 0.16 0.10 0.10 0.12 0.17 0.28 0.31 0.18 0.22 0.19 0.29 0.33 0.19 0.04 0.02 0.02 0.01 0.00 0.00 0.01 0.05 0.06 0.06 0.04 0.05 0.03 0.02 0.02 0.01 0.01
0.29 0.33 0.32 0.26 0.24 0.30 0.22 0.18 0.12 0.13 0.13 0.15 0.20 0.33 0.26 0.15 0.23 0.21 0.29 0.30 0.13 0.12 0.08 0.03 0.01 0.00 0.00 0.00 0.00 0.02 0.02 0.02 0.02 0.03 0.02 0.01 0.01 0.01
0.22 0.22 0.21 0.19 0.28 0.27 0.22 0.24 0.27 0.27 0.22 0.22 0.24 0.27 0.16 0.18 0.24 0.17 0.09 0.07 0.04 0.04 0.04 0.01 0.00 0.00 0.00 0.00 0.00 0.01 0.01 0.00 0.00 0.00 0.00 0.00 0.01 0.01
0.16 0.23 0.29 0.28 0.34 0.35 0.36 0.38 0.39 0.34 0.31 0.32 0.32 0.24 0.22 0.23 0.16 0.13 0.11 0.04 0.06 0.03 0.07 0.03 0.00 0.00 0.00 0.03 0.05 0.01 0.01 0.00 0.00 0.00 0.00 0.01 0.01 0.02
0.13 0.19 0.27 0.31 0.38 0.38 0.39 0.38 0.40 0.35 0.37 0.33 0.27 0.26 0.28 0.27 0.28 0.19 0.18 0.10 0.05 0.09 0.13 0.17 0.09 0.04 0.06 0.08 0.10 0.10 0.06 0.07 0.07 0.06 0.06 0.05 0.06 0.08
0.13 0.19 0.29 0.36 0.36 0.32 0.27 0.21 0.24 0.33 0.32 0.24 0.22 0.29 0.32 0.31 0.34 0.21 0.26 0.25 0.15 0.18 0.17 0.13 0.16 0.19 0.16 0.15 0.18 0.21 0.19 0.16 0.15 0.16 0.19 0.20 0.20 0.19
0.18 0.24 0.26 0.24 0.21 0.18 0.16 0.17 0.20 0.24 0.20 0.17 0.19 0.21 0.25 0.26 0.21 0.25 0.20 0.18 0.12 0.12 0.07 0.08 0.06 0.05 0.04 0.03 0.03 0.06 0.06 0.06 0.06 0.05 0.04 0.03 0.02 0.02
0.09 0.09 0.08 0.08 0.08 0.08 0.10 0.11 0.14 0.20 0.18 0.14 0.14 0.13 0.11 0.10 0.06 0.03 0.02 0.02 0.01 0.02 0.01 0.02 0.01 0.00 0.00 0.00 0.00 0.01 0.01 0.00 0.01 0.01 0.00 0.00 0.00 0.00
0.03 0.03 0.04 0.05 0.05 0.06 0.08 0.10 0.10 0.10 0.07 0.07 0.08 0.04 0.04 0.03 0.00 0.00 0.00 0.00 0.00 0.00 0.00 0.00 0.00 0.00 0.00 0.00 0.00 0.00 0.00 0.00 0.00 0.00 0.00 0.00 0.00 0.00

GFSNE_prec_precacc12_330.txt.gz
Total_Precipitation_Accumulation
0.17 0.11 0.06 0.05 0.00 0.00 0.00 0.00 0.00 0.00 0.00 0.00 0.00 0.00 0.00 0.00 0.00 0.00 0.00 0.03 0.18 0.34 0.32 0.35 0.34 0.28 0.46 0.47 0.14 0.00 0.00 0.00 0.00 0.00 0.01 0.01 0.02 0.02
0.15 0.15 0.12 0.07 0.02 0.00 0.00 0.00 0.00 0.00 0.00 0.00 0.00 0.00 0.00 0.00 0.00 0.00 0.00 0.04 0.22 0.37 0.39 0.24 0.31 0.30 0.39 0.18 0.01 0.00 0.00 0.00 0.00 0.00 0.00 0.01 0.00 0.01
0.12 0.11 0.10 0.06 0.05 0.01 0.00 0.00 0.00 0.00 0.00 0.00 0.00 0.00 0.00 0.00 0.00 0.00 0.00 0.06 0.25 0.38 0.38 0.23 0.25 0.25 0.18 0.06 0.00 0.00 0.00 0.00 0.00 0.00 0.01 0.01 0.01 0.02
0.10 0.11 0.09 0.07 0.05 0.02 0.01 0.00 0.00 0.00 0.00 0.00 0.00 0.00 0.00 0.00 0.01 0.00 0.02 0.10 0.28 0.39 0.39 0.22 0.22 0.22 0.11 0.02 0.00 0.00 0.00 0.00 0.00 0.00 0.00 0.00 0.01 0.02
0.11 0.11 0.06 0.07 0.05 0.04 0.01 0.00 0.00 0.00 0.00 0.00 0.00 0.00 0.00 0.01 0.01 0.01 0.06 0.14 0.39 0.51 0.45 0.30 0.27 0.23 0.09 0.01 0.00 0.00 0.00 0.00 0.00 0.00 0.00 0.00 0.00 0.00
0.17 0.13 0.05 0.04 0.02 0.02 0.01 0.00 0.00 0.00 0.00 0.00 0.00 0.00 0.01 0.01 0.02 0.02 0.14 0.27 0.47 0.77 0.68 0.46 0.38 0.25 0.07 0.01 0.01 0.00 0.00 0.00 0.00 0.00 0.00 0.01 0.00 0.00
0.16 0.08 0.03 0.03 0.02 0.00 0.00 0.00 0.00 0.00 0.00 0.00 0.00 0.00 0.01 0.03 0.03 0.06 0.21 0.47 0.96 1.43 0.82 0.78 0.57 0.31 0.13 0.03 0.01 0.00 0.00 0.01 0.01 0.01 0.01 0.01 0.01 0.01
0.12 0.08 0.03 0.05 0.02 0.01 0.01 0.01 0.00 0.00 0.00 0.00 0.00 0.00 0.01 0.05 0.04 0.13 0.31 0.78 1.87 2.09 0.93 1.38 0.61 0.32 0.28 0.04 0.02 0.01 0.00 0.01 0.01 0.01 0.01 0.01 0.01 0.01
0.19 0.13 0.08 0.05 0.02 0.01 0.01 0.01 0.00 0.00 0.00 0.00 0.00 0.00 0.05 0.10 0.05 0.19 0.51 0.95 1.56 1.86 0.42 0.85 0.40 0.30 0.35 0.14 0.06 0.01 0.01 0.01 0.02 0.01 0.01 0.01 0.01 0.01
0.38 0.25 0.17 0.10 0.05 0.05 0.03 0.01 0.00 0.00 0.00 0.01 0.11 0.12 0.11 0.03 0.08 0.38 0.77 0.81 1.09 0.93 0.24 0.42 0.36 0.46 0.34 0.14 0.19 0.03 0.01 0.02 0.01 0.01 0.01 0.01 0.02 0.02
0.39 0.33 0.21 0.13 0.16 0.16 0.05 0.03 0.03 0.05 0.10 0.21 0.30 0.29 0.20 0.09 0.18 0.37 0.46 0.58 0.99 0.93 0.36 0.12 0.59 0.38 0.13 0.04 0.19 0.24 0.09 0.05 0.03 0.02 0.01 0.01 0.01 0.01
0.33 0.40 0.43 0.36 0.33 0.24 0.16 0.13 0.12 0.38 0.31 0.21 0.28 0.24 0.10 0.13 0.22 0.12 0.19 0.27 0.44 0.48 0.24 0.13 0.43 0.13 0.15 0.13 0.03 0.12 0.10 0.12 0.07 0.05 0.04 0.03 0.02 0.01
0.35 0.50 0.56 0.41 0.30 0.21 0.16 0.11 0.25 0.21 0.14 0.18 0.25 0.19 0.08 0.20 0.26 0.16 0.14 0.13 0.08 0.13 0.07 0.15 0.12 0.00 0.03 0.16 0.14 0.10 0.02 0.05 0.03 0.05 0.05 0.06 0.05 0.03
0.34 0.45 0.45 0.35 0.30 0.27 0.20 0.22 0.21 0.09 0.09 0.12 0.13 0.09 0.12 0.16 0.21 0.23 0.40 0.26 0.05 0.01 0.02 0.04 0.01 0.00 0.01 0.08 0.18 0.20 0.04 0.03 0.02 0.02 0.02 0.05 0.05 0.06
0.31 0.41 0.35 0.31 0.26 0.26 0.26 0.20 0.11 0.06 0.06 0.07 0.10 0.19 0.19 0.12 0.15 0.22 0.39 0.44 0.25 0.05 0.05 0.13 0.05 0.01 0.00 0.03 0.09 0.08 0.07 0.04 0.04 0.03 0.03 0.02 0.01 0.01
0.27 0.32 0.31 0.25 0.23 0.29 0.21 0.16 0.10 0.10 0.09 0.09 0.14 0.22 0.14 0.08 0.17 0.24 0.34 0.37 0.18 0.20 0.22 0.13 0.03 0.00 0.00 0.01 0.03 0.04 0.04 0.05 0.03 0.03 0.02 0.02 0.01 0.01
0.21 0.21 0.20 0.19 0.26 0.25 0.19 0.21 0.22 0.20 0.16 0.16 0.14 0.18 0.09 0.11 0.17 0.19 0.11 0.09 0.06 0.15 0.16 0.04 0.00 0.00 0.00 0.01 0.03 0.02 0.01 0.01 0.01 0.01 0.01 0.01 0.01 0.01
0.16 0.22 0.26 0.26 0.31 0.30 0.29 0.31 0.32 0.28 0.23 0.20 0.18 0.10 0.12 0.16 0.09 0.12 0.11 0.05 0.08 0.14 0.08 0.03 0.00 0.00 0.02 0.05 0.08 0.01 0.01 0.01 0.01 0.01 0.01 0.01 0.01 0.00
0.14 0.19 0.27 0.31 0.38 0.37 0.38 0.36 0.36 0.28 0.29 0.22 0.14 0.11 0.15 0.14 0.11 0.08 0.07 0.11 0.14 0.15 0.15 0.09 0.01 0.01 0.02 0.00 0.05 0.07 0.03 0.03 0.03 0.02 0.02 0.01 0.01 0.01
0.15 0.22 0.31 0.38 0.37 0.32 0.27 0.21 0.24 0.33 0.31 0.21 0.18 0.23 0.22 0.19 0.20 0.06 0.11 0.18 0.10 0.13 0.10 0.05 0.03 0.02 0.01 0.00 0.00 0.02 0.03 0.02 0.01 0.01 0.01 0.01 0.02 0.03
0.24 0.29 0.31 0.28 0.24 0.19 0.17 0.18 0.22 0.29 0.25 0.22 0.26 0.26 0.26 0.25 0.18 0.19 0.16 0.18 0.10 0.18 0.08 0.04 0.05 0.06 0.02 0.01 0.00 0.01 0.01 0.02 0.01 0.00 0.00 0.00 0.00 0.00
0.16 0.16 0.16 0.17 0.17 0.16 0.16 0.16 0.21 0.29 0.27 0.22 0.22 0.17 0.14 0.12 0.08 0.10 0.06 0.04 0.10 0.19 0.06 0.01 0.01 0.01 0.00 0.00 0.00 0.00 0.00 0.00 0.00 0.00 0.00 0.00 0.00 0.00
0.06 0.06 0.08 0.10 0.12 0.12 0.12 0.13 0.12 0.12 0.09 0.10 0.10 0.08 0.06 0.05 0.04 0.06 0.02 0.01 0.01 0.01 0.01 0.00 0.00 0.00 0.00 0.00 0.00 0.00 0.00 0.00 0.00 0.00 0.00 0.00 0.00 0.00

GFSNE_prec_precacc12_333.txt.gz
Total_Precipitation_Accumulation
0.18 0.11 0.06 0.04 0.00 0.00 0.00 0.00 0.00 0.00 0.00 0.00 0.00 0.00 0.00 0.00 0.00 0.00 0.00 0.01 0.08 0.31 0.28 0.37 0.65 0.57 0.62 0.93 0.43 0.06 0.00 0.00 0.00 0.01 0.02 0.02 0.02 0.02
0.21 0.20 0.16 0.08 0.02 0.00 0.00 0.00 0.00 0.00 0.00 0.00 0.00 0.00 0.00 0.00 0.00 0.00 0.00 0.01 0.15 0.35 0.33 0.27 0.43 0.45 0.55 0.50 0.21 0.01 0.00 0.00 0.00 0.01 0.01 0.01 0.01 0.01
0.17 0.15 0.15 0.10 0.05 0.01 0.00 0.00 0.00 0.00 0.00 0.00 0.00 0.00 0.00 0.00 0.00 0.00 0.00 0.00 0.22 0.38 0.40 0.25 0.36 0.48 0.51 0.25 0.06 0.00 0.00 0.00 0.00 0.01 0.01 0.01 0.01 0.02
0.12 0.14 0.14 0.12 0.06 0.02 0.01 0.00 0.00 0.00 0.00 0.00 0.00 0.00 0.00 0.00 0.00 0.00 0.00 0.02 0.26 0.45 0.43 0.24 0.32 0.44 0.40 0.13 0.01 0.00 0.00 0.00 0.00 0.00 0.00 0.00 0.01 0.02
0.09 0.07 0.08 0.10 0.07 0.05 0.02 0.00 0.00 0.00 0.00 0.00 0.00 0.00 0.00 0.00 0.00 0.00 0.00 0.06 0.35 0.64 0.43 0.34 0.45 0.35 0.25 0.04 0.01 0.00 0.00 0.00 0.00 0.00 0.00 0.00 0.00 0.00
0.11 0.05 0.03 0.06 0.04 0.04 0.01 0.00 0.00 0.00 0.00 0.00 0.00 0.00 0.00 0.00 0.01 0.01 0.02 0.16 0.44 0.84 0.67 0.62 0.61 0.40 0.16 0.01 0.01 0.00 0.00 0.00 0.00 0.00 0.00 0.01 0.00 0.00
0.16 0.09 0.03 0.04 0.02 0.01 0.00 0.00 0.00 0.00 0.00 0.00 0.00 0.00 0.00 0.02 0.01 0.00 0.02 0.30 0.93 1.08 1.09 1.10 0.77 0.41 0.18 0.03 0.01 0.00 0.00 0.01 0.01 0.01 0.01 0.00 0.00 0.00
0.13 0.09 0.03 0.05 0.03 0.01 0.01 0.01 0.00 0.00 0.00 0.00 0.00 0.00 0.01 0.01 0.00 0.02 0.08 0.59 1.72 1.80 1.25 1.75 0.73 0.45 0.27 0.03 0.01 0.00 0.00 0.01 0.01 0.01 0.00 0.00 0.00 0.00
0.06 0.04 0.07 0.06 0.02 0.01 0.01 0.01 0.00 0.00 0.00 0.00 0.00 0.00 0.01 0.00 0.01 0.04 0.35 0.89 1.35 1.61 0.57 1.07 0.63 0.39 0.35 0.11 0.04 0.01 0.00 0.01 0.02 0.01 0.01 0.00 0.00 0.00
0.03 0.02 0.05 0.05 0.02 0.01 0.00 0.00 0.00 0.00 0.00 0.00 0.00 0.00 0.00 0.00 0.02 0.20 0.67 0.80 0.96 0.82 0.30 0.60 0.61 0.53 0.31 0.12 0.17 0.05 0.03 0.02 0.01 0.01 0.00 0.00 0.01 0.01
0.04 0.02 0.01 0.01 0.02 0.01 0.00 0.00 0.00 0.00 0.00 0.00 0.01 0.02 0.02 0.04 0.09 0.31 0.48 0.62 0.91 0.90 0.49 0.18 0.83 0.43 0.11 0.04 0.21 0.28 0.10 0.05 0.02 0.01 0.00 0.00 0.00 0.00
0.07 0.03 0.01 0.01 0.01 0.00 0.00 0.00 0.00 0.00 0.00 0.00 0.02 0.05 0.05 0.07 0.19 0.14 0.23 0.31 0.43 0.55 0.47 0.24 0.62 0.14 0.15 0.17 0.06 0.15 0.10 0.12 0.06 0.04 0.03 0.02 0.01 0.00
0.13 0.09 0.02 0.01 0.01 0.00 0.00 0.00 0.00 0.00 0.01 0.09 0.16 0.15 0.06 0.19 0.25 0.20 0.17 0.16 0.09 0.19 0.28 0.23 0.16 0.01 0.03 0.20 0.18 0.11 0.02 0.05 0.02 0.04 0.04 0.05 0.04 0.02
0.12 0.10 0.05 0.01 0.02 0.02 0.03 0.03 0.04 0.03 0.06 0.11 0.11 0.06 0.05 0.11 0.20 0.26 0.45 0.29 0.07 0.03 0.09 0.06 0.01 0.00 0.01 0.07 0.22 0.23 0.07 0.05 0.00 0.01 0.01 0.05 0.07 0.07
0.18 0.18 0.11 0.08 0.06 0.07 0.10 0.09 0.05 0.02 0.03 0.03 0.03 0.04 0.07 0.05 0.14 0.22 0.46 0.47 0.35 0.10 0.06 0.15 0.07 0.01 0.00 0.03 0.10 0.11 0.11 0.07 0.06 0.04 0.03 0.02 0.02 0.01
0.21 0.24 0.23 0.18 0.16 0.18 0.11 0.08 0.04 0.02 0.02 0.02 0.03 0.09 0.07 0.06 0.16 0.24 0.39 0.41 0.26 0.23 0.26 0.18 0.03 0.00 0.00 0.01 0.06 0.07 0.05 0.10 0.12 0.07 0.03 0.03 0.02 0.01
0.17 0.17 0.17 0.17 0.23 0.21 0.14 0.14 0.11 0.07 0.04 0.03 0.05 0.08 0.05 0.10 0.18 0.22 0.15 0.12 0.10 0.19 0.32 0.15 0.02 0.00 0.02 0.07 0.09 0.15 0.12 0.06 0.05 0.02 0.01 0.01 0.01 0.01
0.14 0.17 0.21 0.20 0.25 0.25 0.23 0.22 0.20 0.15 0.09 0.07 0.04 0.04 0.07 0.08 0.09 0.16 0.14 0.07 0.13 0.23 0.17 0.07 0.02 0.02 0.08 0.25 0.36 0.25 0.29 0.11 0.01 0.02 0.02 0.02 0.02 0.01
0.14 0.18 0.25 0.26 0.30 0.27 0.27 0.23 0.21 0.13 0.09 0.03 0.02 0.03 0.05 0.05 0.06 0.10 0.08 0.12 0.28 0.31 0.22 0.10 0.01 0.01 0.04 0.03 0.15 0.17 0.10 0.08 0.04 0.03 0.02 0.01 0.01 0.00
0.15 0.22 0.31 0.37 0.35 0.28 0.21 0.14 0.12 0.15 0.13 0.07 0.05 0.09 0.08 0.03 0.03 0.02 0.05 0.17 0.21 0.20 0.13 0.06 0.03 0.04 0.14 0.04 0.03 0.04 0.07 0.02 0.01 0.01 0.00 0.00 0.01 0.02
0.24 0.29 0.31 0.28 0.24 0.20 0.17 0.17 0.19 0.23 0.20 0.15 0.17 0.14 0.11 0.05 0.05 0.08 0.07 0.17 0.19 0.26 0.18 0.09 0.11 0.13 0.13 0.08 0.02 0.01 0.02 0.02 0.01 0.00 0.00 0.00 0.00 0.00
0.16 0.16 0.17 0.18 0.19 0.18 0.18 0.18 0.22 0.30 0.27 0.21 0.19 0.14 0.09 0.09 0.07 0.10 0.09 0.13 0.26 0.35 0.25 0.11 0.10 0.11 0.08 0.04 0.01 0.00 0.00 0.00 0.00 0.00 0.00 0.00 0.00 0.00
0.12 0.12 0.14 0.15 0.16 0.15 0.15 0.14 0.13 0.15 0.14 0.14 0.12 0.09 0.07 0.08 0.08 0.10 0.12 0.13 0.10 0.15 0.16 0.05 0.02 0.06 0.04 0.00 0.00 0.00 0.00 0.00 0.00 0.00 0.00 0.00 0.00 0.00

GFSNE_prec_precacc12_336.txt.gz
Total_Precipitation_Accumulation
0.17 0.09 0.06 0.04 0.01 0.00 0.00 0.00 0.00 0.00 0.00 0.00 0.00 0.00 0.00 0.00 0.00 0.00 0.00 0.00 0.02 0.14 0.24 0.38 0.80 1.24 1.49 1.29 0.67 0.10 0.01 0.00 0.00 0.01 0.02 0.02 0.02 0.03
0.22 0.18 0.14 0.09 0.04 0.01 0.01 0.00 0.00 0.00 0.00 0.00 0.00 0.00 0.00 0.00 0.00 0.00 0.00 0.00 0.04 0.19 0.26 0.32 0.61 0.92 1.04 0.76 0.46 0.10 0.00 0.00 0.00 0.01 0.01 0.01 0.01 0.02
0.22 0.17 0.15 0.11 0.06 0.03 0.02 0.00 0.00 0.00 0.00 0.00 0.00 0.00 0.00 0.00 0.00 0.00 0.00 0.00 0.06 0.25 0.34 0.29 0.32 0.60 0.73 0.44 0.24 0.05 0.00 0.00 0.00 0.00 0.01 0.00 0.01 0.01
0.13 0.16 0.16 0.13 0.08 0.04 0.03 0.01 0.00 0.00 0.00 0.00 0.00 0.00 0.00 0.00 0.00 0.00 0.00 0.01 0.07 0.32 0.39 0.36 0.37 0.54 0.57 0.31 0.12 0.01 0.00 0.00 0.00 0.00 0.00 0.00 0.01 0.01
0.08 0.08 0.11 0.13 0.09 0.08 0.03 0.01 0.00 0.00 0.00 0.00 0.00 0.00 0.00 0.00 0.00 0.00 0.00 0.02 0.11 0.52 0.42 0.46 0.53 0.55 0.40 0.22 0.09 0.00 0.00 0.00 0.00 0.00 0.00 0.00 0.00 0.00
0.10 0.04 0.05 0.08 0.06 0.06 0.02 0.01 0.00 0.00 0.00 0.00 0.00 0.00 0.00 0.00 0.00 0.00 0.00 0.06 0.21 0.76 0.76 0.62 0.87 0.68 0.32 0.17 0.04 0.00 0.00 0.00 0.00 0.00 0.00 0.00 0.00 0.00
0.13 0.06 0.04 0.07 0.05 0.03 0.01 0.01 0.00 0.00 0.00 0.00 0.00 0.00 0.00 0.02 0.01 0.00 0.01 0.15 0.70 1.06 1.05 1.17 1.25 0.76 0.32 0.07 0.01 0.00 0.00 0.00 0.00 0.00 0.00 0.00 0.00 0.00
0.14 0.11 0.08 0.11 0.06 0.03 0.01 0.01 0.00 0.00 0.00 0.00 0.00 0.00 0.00 0.01 0.00 0.00 0.04 0.34 1.30 1.80 1.23 2.11 1.10 0.72 0.27 0.02 0.01 0.00 0.00 0.00 0.00 0.00 0.00 0.00 0.00 0.00
0.06 0.08 0.13 0.11 0.05 0.07 0.01 0.00 0.00 0.00 0.00 0.00 0.00 0.00 0.01 0.00 0.00 0.01 0.15 0.55 1.03 1.55 0.74 1.65 1.05 0.57 0.29 0.07 0.02 0.01 0.01 0.01 0.01 0.01 0.00 0.00 0.00 0.01
0.04 0.05 0.08 0.08 0.05 0.03 0.01 0.00 0.00 0.00 0.00 0.00 0.00 0.00 0.00 0.00 0.00 0.04 0.29 0.65 0.77 1.12 0.64 0.95 0.80 0.46 0.22 0.09 0.14 0.04 0.03 0.02 0.02 0.01 0.00 0.00 0.00 0.01
0.04 0.04 0.04 0.04 0.03 0.01 0.00 0.00 0.00 0.00 0.00 0.00 0.01 0.02 0.01 0.00 0.01 0.08 0.34 0.54 0.74 1.20 0.94 0.35 0.88 0.36 0.09 0.04 0.19 0.27 0.08 0.05 0.03 0.01 0.00 0.00 0.00 0.01
0.04 0.03 0.01 0.01 0.00 0.00 0.00 0.00 0.00 0.00 0.00 0.00 0.00 0.01 0.00 0.01 0.06 0.10 0.21 0.29 0.41 0.73 0.68 0.27 0.59 0.12 0.14 0.18 0.08 0.18 0.12 0.12 0.06 0.04 0.03 0.02 0.01 0.00
0.03 0.03 0.01 0.00 0.01 0.00 0.00 0.00 0.00 0.00 0.00 0.00 0.01 0.06 0.03 0.03 0.11 0.22 0.17 0.17 0.11 0.26 0.30 0.23 0.16 0.01 0.04 0.23 0.25 0.18 0.04 0.07 0.07 0.05 0.04 0.04 0.04 0.02
0.01 0.01 0.01 0.00 0.00 0.00 0.00 0.00 0.00 0.00 0.00 0.02 0.06 0.04 0.03 0.03 0.16 0.26 0.39 0.34 0.07 0.05 0.10 0.06 0.01 0.00 0.01 0.08 0.23 0.28 0.09 0.06 0.07 0.04 0.02 0.05 0.07 0.07
0.01 0.01 0.01 0.01 0.00 0.00 0.01 0.01 0.02 0.01 0.01 0.02 0.02 0.02 0.02 0.03 0.12 0.20 0.41 0.38 0.28 0.11 0.09 0.16 0.07 0.01 0.00 0.03 0.10 0.13 0.13 0.15 0.08 0.05 0.02 0.02 0.02 0.01
0.02 0.02 0.02 0.03 0.04 0.03 0.02 0.02 0.00 0.01 0.02 0.01 0.02 0.04 0.04 0.03 0.10 0.17 0.33 0.30 0.26 0.25 0.35 0.25 0.05 0.01 0.00 0.02 0.08 0.10 0.08 0.15 0.19 0.13 0.07 0.05 0.03 0.01
0.03 0.02 0.02 0.01 0.02 0.02 0.02 0.03 0.01 0.02 0.02 0.01 0.03 0.03 0.02 0.05 0.12 0.16 0.11 0.09 0.11 0.22 0.49 0.23 0.04 0.00 0.02 0.08 0.13 0.25 0.16 0.15 0.27 0.16 0.12 0.06 0.06 0.06
0.04 0.04 0.04 0.02 0.03 0.04 0.04 0.05 0.02 0.03 0.01 0.02 0.03 0.03 0.06 0.06 0.07 0.13 0.10 0.07 0.14 0.27 0.22 0.11 0.04 0.02 0.11 0.38 0.54 0.45 0.58 0.50 0.37 0.28 0.17 0.15 0.14 0.07
0.08 0.08 0.11 0.10 0.11 0.07 0.06 0.03 0.02 0.01 0.02 0.02 0.02 0.03 0.05 0.06 0.07 0.10 0.08 0.14 0.29 0.35 0.28 0.13 0.03 0.01 0.05 0.07 0.27 0.39 0.31 0.40 0.33 0.20 0.13 0.09 0.05 0.02
0.12 0.16 0.21 0.23 0.20 0.14 0.09 0.05 0.04 0.06 0.05 0.03 0.03 0.07 0.05 0.03 0.04 0.03 0.05 0.18 0.26 0.31 0.21 0.10 0.05 0.05 0.16 0.09 0.16 0.23 0.20 0.15 0.12 0.11 0.05 0.01 0.01 0.02
0.22 0.26 0.27 0.22 0.18 0.13 0.09 0.07 0.07 0.12 0.10 0.07 0.10 0.08 0.05 0.03 0.03 0.06 0.08 0.20 0.28 0.38 0.25 0.14 0.14 0.20 0.20 0.24 0.15 0.09 0.07 0.06 0.03 0.01 0.00 0.00 0.00 0.00
0.16 0.16 0.16 0.18 0.19 0.16 0.13 0.10 0.11 0.14 0.12 0.10 0.09 0.05 0.03 0.04 0.05 0.10 0.10 0.17 0.35 0.46 0.37 0.21 0.15 0.14 0.13 0.12 0.09 0.03 0.00 0.00 0.00 0.00 0.00 0.00 0.00 0.00
0.14 0.14 0.16 0.16 0.16 0.15 0.14 0.12 0.09 0.09 0.10 0.11 0.08 0.07 0.06 0.08 0.12 0.16 0.22 0.23 0.20 0.27 0.29 0.16 0.12 0.11 0.08 0.03 0.01 0.00 0.00 0.00 0.00 0.00 0.00 0.00 0.00 0.00

GFSNE_prec_precacc12_342.txt.gz
Total_Precipitation_Accumulation
0.10 0.05 0.04 0.03 0.03 0.01 0.00 0.00 0.00 0.00 0.00 0.00 0.00 0.00 0.00 0.00 0.00 0.00 0.00 0.00 0.00 0.00 0.02 0.17 0.74 1.29 1.56 1.43 0.93 0.28 0.01 0.00 0.00 0.01 0.02 0.01 0.02 0.04
0.15 0.12 0.10 0.07 0.05 0.03 0.01 0.00 0.00 0.00 0.00 0.00 0.00 0.00 0.00 0.00 0.00 0.00 0.00 0.00 0.00 0.01 0.04 0.19 0.51 1.04 1.38 1.45 1.12 0.56 0.05 0.00 0.00 0.01 0.01 0.00 0.01 0.01
0.21 0.15 0.12 0.09 0.07 0.06 0.03 0.00 0.00 0.00 0.00 0.00 0.00 0.00 0.00 0.00 0.00 0.00 0.00 0.00 0.00 0.03 0.17 0.18 0.39 0.76 1.24 1.32 1.29 0.69 0.16 0.01 0.00 0.00 0.00 0.00 0.00 0.00
0.17 0.21 0.19 0.13 0.08 0.07 0.05 0.01 0.00 0.00 0.00 0.00 0.00 0.00 0.00 0.00 0.00 0.00 0.00 0.00 0.00 0.11 0.25 0.29 0.42 0.51 0.97 0.94 0.87 0.53 0.21 0.03 0.00 0.00 0.00 0.00 0.00 0.00
0.09 0.13 0.20 0.15 0.11 0.09 0.06 0.01 0.00 0.00 0.00 0.00 0.00 0.00 0.00 0.00 0.00 0.00 0.00 0.01 0.00 0.26 0.27 0.38 0.40 0.40 0.66 0.59 0.39 0.34 0.18 0.03 0.00 0.00 0.00 0.00 0.00 0.00
0.07 0.06 0.10 0.12 0.09 0.10 0.05 0.02 0.00 0.00 0.00 0.00 0.00 0.00 0.00 0.00 0.00 0.00 0.01 0.01 0.05 0.41 0.51 0.50 0.66 0.55 0.39 0.47 0.33 0.23 0.13 0.02 0.01 0.02 0.00 0.00 0.00 0.00
0.09 0.06 0.09 0.11 0.08 0.08 0.05 0.02 0.00 0.00 0.00 0.00 0.00 0.00 0.00 0.00 0.00 0.00 0.01 0.02 0.26 0.50 0.77 0.90 1.09 0.90 0.52 0.43 0.35 0.19 0.08 0.00 0.01 0.03 0.01 0.00 0.00 0.00
0.10 0.10 0.13 0.15 0.11 0.08 0.03 0.01 0.00 0.00 0.00 0.00 0.00 0.00 0.00 0.00 0.00 0.01 0.03 0.08 0.45 0.96 1.02 1.73 1.08 1.09 0.61 0.39 0.28 0.15 0.05 0.01 0.02 0.03 0.01 0.00 0.00 0.00
0.06 0.09 0.15 0.15 0.11 0.10 0.02 0.00 0.00 0.00 0.00 0.00 0.00 0.00 0.00 0.00 0.01 0.03 0.08 0.12 0.27 1.11 0.70 1.45 1.08 0.91 0.75 0.41 0.25 0.09 0.03 0.02 0.04 0.06 0.04 0.02 0.00 0.00
0.07 0.10 0.09 0.13 0.09 0.07 0.01 0.00 0.00 0.00 0.00 0.00 0.00 0.00 0.00 0.00 0.03 0.04 0.12 0.14 0.33 0.91 0.61 0.80 0.92 0.54 0.48 0.37 0.32 0.07 0.03 0.03 0.11 0.15 0.09 0.04 0.00 0.01
0.12 0.11 0.11 0.12 0.05 0.01 0.01 0.00 0.00 0.00 0.00 0.00 0.00 0.02 0.00 0.00 0.02 0.06 0.12 0.13 0.46 0.84 0.90 0.41 0.79 0.35 0.27 0.18 0.31 0.24 0.06 0.07 0.19 0.21 0.07 0.01 0.00 0.01
0.17 0.14 0.11 0.05 0.01 0.02 0.01 0.00 0.00 0.00 0.00 0.00 0.00 0.03 0.01 0.01 0.07 0.10 0.10 0.12 0.31 0.65 0.83 0.37 0.43 0.12 0.24 0.29 0.17 0.17 0.10 0.15 0.25 0.18 0.03 0.00 0.00 0.00
0.15 0.14 0.07 0.02 0.04 0.03 0.01 0.00 0.00 0.00 0.00 0.01 0.03 0.03 0.01 0.01 0.06 0.15 0.09 0.13 0.15 0.29 0.47 0.20 0.09 0.02 0.06 0.29 0.28 0.14 0.05 0.11 0.17 0.12 0.03 0.02 0.02 0.02
0.06 0.05 0.05 0.07 0.06 0.01 0.01 0.01 0.00 0.00 0.02 0.02 0.02 0.00 0.00 0.04 0.06 0.11 0.13 0.24 0.11 0.09 0.13 0.03 0.00 0.00 0.01 0.06 0.20 0.27 0.12 0.06 0.10 0.15 0.05 0.04 0.05 0.04
0.02 0.02 0.06 0.05 0.02 0.00 0.01 0.00 0.00 0.01 0.01 0.01 0.00 0.01 0.03 0.05 0.04 0.08 0.20 0.21 0.36 0.45 0.19 0.07 0.03 0.00 0.00 0.01 0.05 0.14 0.16 0.13 0.09 0.11 0.11 0.03 0.02 0.01
0.02 0.03 0.04 0.01 0.00 0.00 0.00 0.01 0.00 0.01 0.01 0.00 0.02 0.04 0.04 0.02 0.02 0.05 0.18 0.21 0.50 0.40 0.34 0.23 0.13 0.03 0.01 0.02 0.06 0.09 0.07 0.11 0.18 0.16 0.11 0.10 0.06 0.03
0.02 0.02 0.02 0.01 0.01 0.01 0.01 0.02 0.00 0.01 0.01 0.01 0.04 0.05 0.03 0.01 0.03 0.09 0.12 0.19 0.36 0.25 0.55 0.43 0.13 0.01 0.03 0.08 0.13 0.29 0.21 0.26 0.41 0.27 0.22 0.19 0.19 0.19
0.02 0.02 0.01 0.01 0.00 0.02 0.02 0.01 0.00 0.02 0.02 0.03 0.05 0.04 0.02 0.01 0.03 0.09 0.15 0.21 0.21 0.22 0.32 0.23 0.07 0.02 0.10 0.43 0.65 0.57 0.70 0.68 0.70 0.66 0.44 0.37 0.38 0.33
0.00 0.00 0.00 0.01 0.02 0.01 0.00 0.00 0.00 0.02 0.03 0.05 0.04 0.01 0.01 0.01 0.04 0.07 0.15 0.17 0.25 0.31 0.30 0.12 0.02 0.01 0.05 0.11 0.35 0.60 0.52 0.58 0.52 0.45 0.44 0.38 0.34 0.28
0.00 0.00 0.01 0.00 0.00 0.00 0.00 0.00 0.02 0.06 0.06 0.02 0.01 0.01 0.01 0.03 0.05 0.09 0.09 0.09 0.22 0.32 0.25 0.15 0.05 0.05 0.17 0.13 0.21 0.34 0.35 0.30 0.28 0.30 0.25 0.18 0.16 0.14
0.00 0.00 0.00 0.00 0.00 0.00 0.02 0.02 0.03 0.06 0.04 0.01 0.02 0.01 0.02 0.05 0.06 0.05 0.04 0.15 0.28 0.28 0.27 0.20 0.16 0.22 0.23 0.28 0.22 0.20 0.22 0.16 0.11 0.08 0.09 0.07 0.04 0.01
0.01 0.01 0.01 0.01 0.03 0.03 0.03 0.02 0.02 0.03 0.02 0.02 0.01 0.01 0.03 0.04 0.03 0.02 0.06 0.16 0.33 0.38 0.46 0.31 0.18 0.14 0.16 0.16 0.15 0.07 0.05 0.04 0.02 0.02 0.02 0.01 0.00 0.00
0.07 0.07 0.08 0.06 0.04 0.04 0.03 0.02 0.01 0.03 0.05 0.04 0.02 0.02 0.02 0.05 0.08 0.11 0.21 0.26 0.28 0.36 0.41 0.30 0.20 0.16 0.13 0.06 0.05 0.05 0.02 0.00 0.00 0.00 0.00 0.00 0.00 0.00